Regional Weather Roundup
Issued by NWS

Home | Current Version | Previous Version | Text Only | Print | Product List | Glossary Off
Versions: 1 2 3 4 5 6 7 8 9 10 11 12 13 14 15 16 17 18 19 20 21 22 23 24 25 26 27 28 29 30 31 32 33 34 35 36 37 38 39 40 41 42 43 44 45 46 47 48 49 50

000
ASUS43 KMKX 250611
RWRWI

WISCONSIN REGIONAL WEATHER ROUNDUP
NATIONAL WEATHER SERVICE MILWAUKEE/SULLIVAN WI
100 AM CDT SUN SEP 25 2016

NOTE: "FAIR" INDICATES FEW OR NO CLOUDS BELOW 12,000 FEET WITH NO
SIGNIFICANT WEATHER AND/OR OBSTRUCTIONS TO VISIBILITY.

WIZ001-002-006>008-014>016-023>028-250700-
NORTHWEST WISCONSIN

CITY           SKY/WX    TMP DP  RH WIND       PRES   REMARKS
SUPERIOR ARPT  CLOUDY    59  58  97 CALM      29.99F
6HR MIN TEMP:  58; 6HR MAX TEMP:  59;

ASHLAND        CLEAR     61  56  83 VRB5      30.03F
6HR MIN TEMP:  61; 6HR MAX TEMP:  66;

HAYWARD        CLOUDY    63  57  81 S10G21    30.03F
6HR MIN TEMP:  63; 6HR MAX TEMP:  66;

SIREN          CLOUDY    64  60  85 SE9G20    30.00F
6HR MIN TEMP:  64; 6HR MAX TEMP:  65;

CUMBERLAND     CLOUDY    63  59  88 SE8       30.03F
RICE LAKE      CLOUDY    63  58  83 SE14      30.04F
6HR MIN TEMP:  63; 6HR MAX TEMP:  65;

CHETEK         NOT AVBL
LADYSMITH      CLOUDY    62  57  85 SE8       30.09F
6HR MIN TEMP:  61; 6HR MAX TEMP:  66;

EAU CLAIRE     CLOUDY    63  60  90 SE8       30.03F
6HR MIN TEMP:  63; 6HR MAX TEMP:  66;

MENOMONIE      CLOUDY    64  60  87 E12       30.03F
6HR MIN TEMP:  64; 6HR MAX TEMP:  66;

NEW RICHMOND   CLOUDY    65  63  93 SE7       30.00F
6HR MIN TEMP:  64; 6HR MAX TEMP:  65;

OSCEOLA        CLOUDY    65  65 100 SE9       30.01F
6HR MIN TEMP:  65; 6HR MAX TEMP:  67;

$$

WIZ003>005-009-010-017-018-250700-
NORTH CENTRAL WISCONSIN

CITY           SKY/WX    TMP DP  RH WIND       PRES   REMARKS
MANITOWISH WTR NOT AVBL
ARBOR VITAE    CLOUDY    59  54  83 SE8       30.12F
6HR MIN TEMP:  59; 6HR MAX TEMP:  62;

WOODRUFF       CLOUDY    59  54  83 SE8       30.12F
6HR MIN TEMP:  59; 6HR MAX TEMP:  62;

RHINELANDER    CLOUDY    57  54  89 SE6       30.14F
6HR MIN TEMP:  55; 6HR MAX TEMP:  61;

EAGLE RIVER    MOCLDY    56  49  78 SE7       30.13F
6HR MIN TEMP:  56; 6HR MAX TEMP:  61;

LAND O LAKES   PTCLDY    56  51  82 SE7       30.14F
6HR MIN TEMP:  56; 6HR MAX TEMP:  62;

PHILLIPS       CLOUDY    57  54  89 SE7       30.09F
6HR MIN TEMP:  57; 6HR MAX TEMP:  64;

TOMAHAWK       CLOUDY    57  53  85 CALM      30.13F
6HR MIN TEMP:  57; 6HR MAX TEMP:  59;

MEDFORD        PTCLDY    57  57 100 SE7       30.11S
6HR MIN TEMP:  57; 6HR MAX TEMP:  63;

MERRILL        PTCLDY    58  55  92 SE6       30.14F
6HR MIN TEMP:  57; 6HR MAX TEMP:  62; 6HR PCP:  0.01;

$$

WIZ029-030-035-036-043>047-250700-
CENTRAL WISCONSIN

CITY           SKY/WX    TMP DP  RH WIND       PRES   REMARKS
WAUSAU         PTCLDY    58  54  86 SE7       30.12F
6HR MIN TEMP:  58; 6HR MAX TEMP:  63;

MOSINEE        PTCLDY    55  55 100 SE7       30.14F
MARSHFIELD     CLOUDY    60  56  86 SE10      30.11F
6HR MIN TEMP:  60; 6HR MAX TEMP:  65;

STEVENS POINT  PTCLDY    56  55  99 E5        30.13F
6HR MIN TEMP:  56; 6HR MAX TEMP:  62;

WAUPACA        CLOUDY    59  58  97 CALM      30.14F
6HR MIN TEMP:  59; 6HR MAX TEMP:  65;

WAUTOMA        PTCLDY    57  56  96 CALM      30.14F
6HR MIN TEMP:  57; 6HR MAX TEMP:  65; 6HR PCP:  0.01;

WISC RAPIDS    CLEAR     59  57  93 SE5       30.14F
6HR MIN TEMP:  59; 6HR MAX TEMP:  66; 6HR PCP: TRACE;

CAMP DOUGLAS   CLOUDY    63  61  94 SE9       30.09F
6HR MIN TEMP:  59; 6HR MAX TEMP:  63;

$$

WIZ011>013-019>022-031-037>040-048>050-250700-
NORTHEAST WISCONSIN

CITY           SKY/WX    TMP DP  RH WIND       PRES   REMARKS
ANTIGO         CLOUDY    55  53  91 SE3       30.15F
6HR MIN TEMP:  55; 6HR MAX TEMP:  58;

SHAWANO        MOCLDY    58  54  87 CALM      30.16F
6HR MIN TEMP:  58; 6HR MAX TEMP:  62;

OCONTO         NOT AVBL
STURGEON BAY   CLEAR     56  53  90 SE5       30.16F
6HR MIN TEMP:  53; 6HR MAX TEMP:  60;

GREEN BAY      CLEAR     58  57  97 CALM      30.16S
6HR MIN TEMP:  58; 6HR MAX TEMP:  62;

MANITOWOC      CLOUDY    62  58  86 SE6       30.15F
6HR MIN TEMP:  58; 6HR MAX TEMP:  62;

APPLETON       PTCLDY    59  52  77 E6        30.13F
CLINTONVILLE   NOT AVBL
OSHKOSH        PTCLDY    61  56  83 SE5       30.14S
6HR MIN TEMP:  61; 6HR MAX TEMP:  63;

$$

WIZ032>034-041-042-053>061-250700-
SOUTHWEST WISCONSIN

CITY           SKY/WX    TMP DP  RH WIND       PRES   REMARKS
LA CROSSE      MOCLDY    66  62  87 SE8       30.05F
6HR MIN TEMP:  66; 6HR MAX TEMP:  70;

SPARTA         CLOUDY    63  61  95 E6        30.08F
6HR MIN TEMP:  60; 6HR MAX TEMP:  65;

VIROQUA        CLOUDY    63  63 100 SE12G18   30.08F
6HR MIN TEMP:  62; 6HR MAX TEMP:  65;

BOSCOBEL       CLOUDY    64  62  93 NE3       30.09S
6HR MIN TEMP:  64; 6HR MAX TEMP:  70;

PRAIRIE DU CHI CLOUDY    65  62  90 SE6       30.05F
6HR MIN TEMP:  65; 6HR MAX TEMP:  70;

PLATTEVILLE    CLOUDY    64  64 100 E13       30.09S
6HR MIN TEMP:  64; 6HR MAX TEMP:  70;

$$

WIZ056-057-062-063-064-067-068-250700-
SOUTH CENTRAL WISCONSIN

CITY           SKY/WX    TMP DP  RH WIND       PRES   REMARKS
REEDSBURG      NOT AVBL
BARABOO/DELLS  CLOUDY    61  58  92 E6        30.12F
6HR MIN TEMP:  61; 6HR MAX TEMP:  65;

LONE ROCK      CLOUDY    63  61  93 E8        30.10F
6HR MIN TEMP:  63; 6HR MAX TEMP:  67;

MINERAL POINT  CLOUDY    63  63 100 SE12      30.10F
MADISON        CLEAR     61  59  93 SE5       30.12F
6HR MIN TEMP:  61; 6HR MAX TEMP:  67;

MIDDLETON      CLEAR     64  64  99 SE8       30.12F
6HR MIN TEMP:  64; 6HR MAX TEMP:  68;

WATERTOWN      CLEAR     59  59 100 CALM      30.13S
6HR MIN TEMP:  59; 6HR MAX TEMP:  64;

MONROE         CLEAR     61  61 100 E5        30.11F FOG
JANESVILLE     CLEAR     63  61  94 E3        30.11F
$$

WIZ051-052-058>065-066-070>072-250700-
SOUTHEAST WISCONSIN

CITY           SKY/WX    TMP DP  RH WIND       PRES   REMARKS
MILWAUKEE      CLEAR     66  61  84 SE7       30.13F
6HR MIN TEMP:  66; 6HR MAX TEMP:  67;

WAUKESHA       CLEAR     61  59  94 E6        30.15S
MILWAUKEE/TIMM CLEAR     64  57  77 CALM      30.15S
RACINE         CLEAR     68  61  78 SE8       30.14F
6HR MIN TEMP:  67; 6HR MAX TEMP:  68;

BURLINGTON     CLEAR     56  56  99 CALM      30.13F FOG
6HR MIN TEMP:  56; 6HR MAX TEMP:  64;

KENOSHA        CLEAR     67  62  84 E7        30.13F
6HR MIN TEMP:  64; 6HR MAX TEMP:  67;

FOND DU LAC    CLEAR     61  57  87 S5        30.14F
6HR MIN TEMP:  57; 6HR MAX TEMP:  64;

SHEBOYGAN      CLOUDY    64  57  78 SE5       30.15F
6HR MIN TEMP:  60; 6HR MAX TEMP:  65;

WEST BEND      CLEAR     59  55  88 CALM      30.15S
JUNEAU         CLEAR     59  57  91 E5        30.15S
6HR MIN TEMP:  58; 6HR MAX TEMP:  62;

$$

LSZ147-162-250700-
LAKE SUPERIOR

STATION/POSITION TIME  TEMP    WIND        PRES    WAVE
                       AIR SEA DIR/SP/G            HT/PER
                 (UTC) (F)     (DEG/KT/KT) (MB)    (FT/S)
W MID LAKE BUOY  0550   64 62  150/ 12/ 14 1017.5R   2/ 5
DEVILS ISLAND    0600   63     120/  5/  7 1016.9F
SAXON HARBOR     0500   64     180/  6/ 13 1016.9S
$$

LMZ867-665-643>646-250700-
LAKE MICHIGAN

STATION/POSITION TIME  TEMP    WIND        PRES    WAVE
                       AIR SEA DIR/SP/G            HT/PER
                 (UTC) (F)     (DEG/KT/KT) (MB)    (FT/S)
CHAMBERS ISLAND  0500   62     100/  3/  4 1021.0F
S GREEN BAY BUOY 0600   63 66  120/  6/  6 1020.5F
N MID LAKE BUOY  0550   65 67  170/ 14/ 17 1021.2F   2/ 4
NORTHPORT PIER   C1F1C2F2C3F3C4F4C5F5C6F6C7F7C8M1C9M2Ca!



USA.gov is the U.S. government's official web portal to all federal, state and local government web resources and services.